Pagrindinis puslapis
METAR-TAF:

METAR-TAF

Oro uostai :

Kramfors, Švedija

platuma: 63-03N, ilguma: 017-46E, Aukštis: 10 m

Dabartinis oras

Ataskaita buvo paskelbta 23 minutes, ne 17:50 UTC
Vėjas 10 kt iš Pietų/Pietvakarių su gūsio iki 22 kt
Temperatūra 16°C
Drėgmė 72%
Slėgis 997 hPa
Matomumas 10 km arba daugiau

METAR: ESNK 231750Z AUTO 20010G22KT 9999 FEW040/// BKN057/// OVC084/// 16/11 Q0997

Laikas: 20:13 (18:13 UTC)


TAF: trūkstamas

Orai ataskaitas ir orų prognozės (METAR, TAF).

turimą stotys yra geltonos ir raudonos taškus žemėlapyje.

Perkelti pele per norėdami pamatyti stoties vardą.

Tada spustelėkite, norėdami matyti oro stebėjimo ir prognozės.

Norėdami pakeisti žemėlapį: spustelėkite ant žalios mygtukų su juodo kryžiaus žemyn,; žalią mygtuką su brūkšneliu, jei norite nutolinti; arba žalių rodyklių gretimoms žemėlapius.


METAR-TAF: